Temp
6 6 6 6 6 6 6 6 6 6 6 6 5 5 5 5 5 5 4 3 3 2 1 1 1 1 1 1 0 -0 -1 1 2 1 1 1 3 3 3 3 3 3 3 3 4
6 6 6 6 6 6 6 6 6 6 5 5 5 5 5 5 4 4 3 3 2 1 0 0 0 -0 -0 -0 -1 -1 -1 0 1 1 0 0 0 2 3 3 4 3 3 3 4
6 6 6 6 5 5 5 5 5 5 5 5 5 5 4 4 3 3 3 2 2 1 -0 -1 -1 -1 -1 -2 -2 -2 -0 0 -0 -0 -0 -0 0 1 2 3 3 4 4 4 4
5 5 5 5 5 5 5 5 5 5 4 4 4 4 3 3 2 1 1 1 0 -1 -1 -1 -2 -2 -2 -2 -2 -2 -1 -1 -0 -2 -2 -1 -1 0 1 1 2 2 2 3 3
4 4 4 4 4 4 4 4 4 4 4 3 3 3 2 2 1 1 -1 -1 -2 -2 -3 -3 -3 -3 -3 -3 -3 -3 -2 -2 -2 -2 -2 -2 -1 -1 -0 0 1 2 2 2 3
4 4 4 4 4 4 4 4 3 3 3 3 2 2 1 0 -0 -1 -2 -3 -3 -3 -4 -4 -4 -4 -5 -4 -5 -4 -4 -3 -3 -3 -2 -3 -2 -2 -1 -1 0 1 1 2 3
3 3 3 3 3 3 3 3 2 2 1 1 1 0 -0 -2 -2 -3 -4 -4 -4 -5 -5 -5 -5 -5 -5 -5 -5 -5 -5 -5 -4 -3 -4 -3 -3 -2 -2 -2 -1 -0 1 2 2
3 3 3 3 2 2 2 2 1 1 0 -0 -1 -1 -2 -3 -4 -4 -5 -5 -5 -5 -6 -6 -6 -6 -6 -6 -6 -6 -5 -5 -4 -4 -4 -4 -3 -2 -2 -2 -2 -1 0 1 0
2 2 2 2 2 2 1 1 1 0 -1 -1 -2 -2 -4 -4 -5 -5 -6 -6 -6 -6 -6 -7 -7 -7 -7 -7 -7 -7 -6 -5 -5 -4 -4 -4 -4 -3 -3 -2 -2 -1 -1 -0 0
1 1 2 2 1 1 0 -0 -1 -1 -1 -2 -3 -4 -5 -5 -6 -7 -7 -7 -7 -7 -7 -7 -7 -7 -7 -7 -8 -7 -6 -6 -5 -5 -4 -4 -4 -4 -3 -3 -2 -2 -1 -1 -0
1 1 1 1 1 0 -1 -1 -2 -2 -3 -3 -4 -5 -6 -6 -7 -7 -7 -7 -7 -7 -7 -8 -8 -7 -6 -6 -6 -7 -6 -6 -5 -5 -5 -4 -4 -4 -4 -3 -3 -2 -2 -2 -1
0 0 0 0 -0 -1 -2 -2 -3 -3 -3 -4 -6 -7 -7 -7 -7 -7 -8 -8 -8 -8 -8 -8 -8 -7 -8 -8 -8 -7 -7 -7 -6 -5 -5 -5 -5 -5 -4 -4 -3 -3 -3 -2 -2
-1 -1 -1 -0 -1 -1 -2 -3 -3 -3 -5 -6 -7 -8 -8 -7 -8 -8 -8 -8 -8 -8 -8 -9 -8 -8 -8 -8 -8 -7 -8 -7 -6 -6 -6 -5 -6 -6 -5 -5 -5 -4 -4 -4 -3
-1 -1 -1 -1 -1 -2 -3 -3 -4 -5 -6 -7 -8 -8 -8 -8 -8 -8 -8 -9 -9 -9 -9 -9 -8 -8 -8 -8 -8 -8 -7 -7 -7 -7 -7 -7 -8 -8 -7 -6 -6 -6 -5 -5 -5
-2 -1 -1 -1 -2 -3 -4 -4 -5 -6 -10 -8 -9 -8 -8 -9 -9 -10 -10 -10 -10 -10 -10 -9 -9 -9 -9 -9 -8 -8 -8 -8 -8 -7 -9 -9 -8 -8 -8 -8 -7 -7 -6 -6 -6
-2 -1 -1 -2 -2 -3 -4 -5 -5 -7 -12 -8 -9 -9 -9 -9 -10 -11 -11 -11 -11 -11 -11 -11 -10 -10 -9 -9 -9 -10 -9 -9 -9 -8 -9 -8 -8 -9 -9 -8 -8 -8 -7 -7 -6
-2 -2 -2 -2 -3 -4 -5 -6 -7 -8 -8 -9 -9 -9 -10 -11 -11 -11 -11 -11 -11 -12 -12 -12 -11 -11 -10 -10 -10 -11 -10 -10 -10 -10 -9 -8 -9 -9 -10 -9 -9 -9 -8 -7 -7
-2 -2 -2 -3 -4 -5 -6 -6 -8 -8 -8 -9 -10 -10 -11 -12 -12 -12 -13 -13 -14 -13 -13 -13 -12 -12 -12 -11 -11 -11 -10 -10 -10 -11 -13 -10 -10 -11 -10 -10 -10 -10 -10 -9 -9
-3 -3 -3 -4 -6 -6 -7 -7 -7 -9 -9 -9 -10 -11 -12 -12 -13 -13 -14 -14 -14 -14 -14 -14 -13 -13 -13 -12 -12 -12 -11 -10 -10 -11 -12 -13 -14 -14 -13 -12 -12 -11 -11 -10 -10
-3 -3 -4 -6 -7 -7 -8 -8 -9 -9 -10 -10 -10 -11 -12 -12 -13 -13 -14 -15 -15 -14 -15 -15 -14 -14 -13 -13 -13 -12 -12 -11 -11 -10 -11 -17 -15 -14 -13 -13 -13 -12 -12 -11 -11
-4 -5 -6 -7 -7 -8 -8 -9 -10 -10 -10 -11 -11 -12 -13 -13 -14 -14 -14 -15 -15 -15 -15 -15 -15 -14 -14 -14 -13 -13 -12 -12 -12 -12 -13 -19 -15 -14 -14 -14 -14 -13 -13 -12 -12
-5 -6 -7 -7 -8 -8 -9 -10 -10 -11 -11 -11 -12 -12 -13 -13 -14 -14 -15 -15 -15 -15 -15 -15 -15 -15 -15 -15 -14 -14 -14 -13 -13 -13 -14 -14 -16 -15 -15 -15 -14 -14 -13 -13 -13
-6 -6 -7 -8 -8 -9 -10 -11 -11 -11 -12 -12 -12 -13 -13 -13 -14 -15 -15 -15 -16 -16 -16 -16 -15 -15 -15 -15 -15 -15 -14 -14 -14 -14 -14 -14 -16 -15 -16 -16 -15 -15 -14 -14 -13
-7 -8 -8 -8 -9 -11 -12 -12 -12 -12 -12 -13 -13 -13 -13 -14 -14 -15 -15 -15 -16 -16 -16 -16 -16 -16 -17 -16 -16 -15 -15 -15 -14 -14 -14 -14 -14 -14 -15 -15 -15 -15 -15 -14 -14
-7 -9 -10 -11 -11 -13 -13 -13 -13 -13 -13 -13 -13 -14 -14 -14 -14 -15 -15 -15 -16 -16 -16 -16 -16 -16 -16 -16 -16 -16 -16 -15 -15 -15 -14 -14 -14 -13 -14 -15 -16 -15 -15 -15 -15
-9 -11 -12 -13 -13 -14 -14 -14 -14 -13 -13 -14 -14 -14 -14 -14 -15 -15 -15 -16 -16 -16 -16 -16 -16 -16 -16 -16 -16 -16 -16 -16 -15 -15 -15 -14 -14 -15 -16 -16 -16 -16 -16 -16 -16
-9 -11 -14 -14 -14 -14 -14 -14 -14 -14 -14 -15 -14 -14 -14 -14 -15 -15 -15 -16 -16 -16 -16 -16 -16 -16 -16 -16 -16 -16 -16 -16 -16 -16 -16 -15 -16 -16 -16 -17 -16 -17 -17 -16 -16
Height
3082 3079 3076 3074 3071 3068 3065 3063 3061 3058 3056 3054 3052 3050 3046 3045 3044 3044 3042 3043 3043 3043 3044 3045 3046 3047 3049 3051 3053 3055 3056 3046 3047 3052 3055 3060 3068 3073 3076 3076 3079 3080 3083 3088 3090
3079 3076 3074 3071 3068 3065 3062 3059 3056 3054 3052 3050 3048 3046 3044 3041 3040 3038 3038 3036 3036 3036 3038 3039 3040 3042 3042 3044 3046 3047 3044 3042 3045 3049 3053 3057 3063 3068 3071 3072 3072 3075 3079 3084 3086
3078 3075 3072 3069 3066 3063 3059 3055 3051 3048 3046 3044 3043 3040 3038 3036 3035 3032 3031 3030 3029 3030 3031 3033 3034 3036 3036 3037 3038 3038 3034 3040 3042 3046 3050 3053 3057 3062 3063 3065 3068 3070 3074 3078 3081
3075 3073 3069 3066 3063 3058 3053 3050 3047 3044 3043 3039 3037 3034 3033 3031 3032 3027 3026 3025 3025 3025 3025 3026 3027 3028 3029 3030 3033 3033 3033 3036 3038 3043 3046 3050 3053 3054 3056 3059 3062 3065 3068 3072 3076
3072 3069 3066 3062 3058 3053 3049 3047 3044 3041 3038 3034 3032 3030 3027 3026 3023 3021 3020 3019 3019 3019 3020 3021 3021 3023 3022 3023 3026 3025 3028 3031 3034 3038 3041 3045 3047 3049 3050 3052 3054 3058 3063 3067 3070
3070 3066 3062 3057 3052 3048 3045 3042 3039 3036 3033 3030 3027 3024 3022 3020 3016 3015 3014 3014 3014 3014 3015 3016 3017 3019 3017 3017 3020 3019 3021 3024 3028 3031 3034 3039 3043 3044 3043 3045 3047 3051 3055 3059 3063
3066 3062 3057 3052 3048 3044 3040 3036 3033 3029 3026 3024 3021 3018 3016 3015 3011 3009 3008 3008 3009 3009 3010 3011 3011 3012 3011 3013 3014 3015 3017 3017 3019 3023 3027 3032 3036 3035 3038 3041 3043 3045 3049 3052 3055
3061 3056 3051 3047 3042 3038 3034 3030 3027 3024 3021 3018 3015 3013 3010 3008 3006 3005 3004 3003 3004 3004 3005 3006 3006 3007 3007 3010 3010 3011 3012 3012 3014 3018 3021 3026 3024 3029 3032 3036 3039 3041 3043 3047 3050
3058 3053 3048 3043 3038 3034 3030 3026 3023 3019 3016 3013 3011 3008 3006 3005 3004 3002 3001 3000 2999 3000 3000 3001 3002 3002 3004 3005 3007 3007 3005 3006 3010 3014 3016 3019 3019 3022 3026 3030 3034 3037 3039 3041 3044
3055 3051 3045 3039 3035 3030 3025 3021 3017 3013 3010 3007 3004 3006 3002 3000 2999 2998 2997 2997 2996 2996 2997 2997 2997 2996 2998 2999 2997 3000 3001 3003 3004 3008 3009 3011 3013 3017 3021 3025 3028 3031 3035 3037 3039
3051 3046 3041 3036 3030 3024 3020 3017 3016 3010 3003 3002 3000 2996 2996 2996 2995 2995 2994 2993 2993 2993 2992 2992 2992 2990 2992 2994 2995 2999 2999 3000 3002 3003 3005 3006 3008 3012 3014 3019 3022 3026 3029 3032 3036
3047 3041 3036 3030 3025 3020 3016 3012 3008 3007 2999 2995 2993 2992 2991 2990 2992 2992 2992 2992 2990 2989 2988 2989 2985 2988 2989 2990 2991 2992 2994 2996 2997 2998 3000 3001 3003 3006 3009 3012 3015 3019 3023 3026 3030
3042 3037 3031 3025 3020 3015 3011 3007 3003 2999 2997 2991 2987 2988 2989 2988 2987 2988 2988 2986 2985 2985 2984 2983 2984 2983 2984 2984 2986 2986 2987 2990 2994 2994 2995 2997 2999 3000 3003 3006 3009 3013 3016 3020 3023
3037 3032 3026 3020 3016 3009 3005 3002 2999 2995 2990 2988 2985 2983 2984 2984 2983 2983 2982 2984 2982 2981 2980 2979 2978 2978 2979 2980 2982 2982 2984 2986 2990 2992 2993 2994 2995 2995 2997 3000 3003 3007 3011 3015 3018
3033 3027 3021 3014 3009 3004 3001 2996 2993 2992 2991 2985 2982 2981 2980 2983 2981 2979 2978 2977 2976 2976 2978 2975 2974 2974 2974 2975 2977 2979 2980 2982 2984 2987 2990 2990 2993 2989 2992 2994 2998 3002 3005 3008 3012
3030 3024 3016 3010 3004 3000 2995 2991 2989 2990 2982 2979 2978 2978 2978 2976 2976 2975 2975 2974 2972 2971 2970 2970 2970 2971 2971 2971 2972 2974 2976 2979 2979 2982 2983 2982 2987 2984 2985 2988 2993 2997 3001 3004 3007
3027 3020 3014 3006 3001 2994 2990 2988 2986 2980 2977 2976 2976 2975 2974 2974 2973 2972 2971 2969 2969 2968 2967 2967 2966 2967 2968 2969 2970 2971 2973 2975 2977 2976 2973 2975 2982 2980 2982 2985 2990 2994 2997 3000 3003
3023 3017 3010 3003 2997 2991 2986 2984 2980 2973 2972 2972 2973 2972 2972 2972 2971 2970 2969 2969 2968 2967 2966 2965 2965 2964 2964 2965 2967 2967 2970 2969 2970 2972 2972 2973 2972 2974 2979 2982 2985 2989 2993 2996 2999
3018 3010 3002 2998 2992 2986 2983 2979 2974 2972 2972 2971 2970 2970 2971 2971 2971 2969 2968 2969 2968 2967 2968 2965 2964 2963 2962 2962 2965 2965 2965 2967 2966 2968 2969 2971 2972 2973 2975 2979 2982 2985 2989 2992 2995
3014 3004 2998 2992 2987 2983 2980 2976 2974 2972 2971 2970 2970 2971 2971 2970 2970 2969 2968 2969 2968 2967 2966 2965 2964 2962 2962 2962 2962 2962 2964 2965 2964 2964 2964 2970 2970 2969 2971 2975 2979 2982 2985 2988 2990
3009 3001 2995 2989 2983 2980 2978 2975 2973 2971 2971 2971 2970 2970 2970 2970 2969 2969 2970 2970 2968 2967 2965 2964 2965 2964 2962 2962 2961 2962 2962 2963 2963 2963 2963 2975 2968 2967 2971 2974 2978 2980 2983 2985 2987
3005 3000 2994 2986 2984 2979 2976 2973 2973 2971 2970 2970 2970 2969 2969 2969 2969 2969 2970 2969 2968 2967 2965 2965 2964 2962 2963 2962 2962 2961 2962 2962 2962 2964 2963 2964 2968 2966 2970 2973 2976 2979 2981 2983 2985
3002 2996 2990 2985 2981 2976 2974 2972 2971 2970 2970 2970 2970 2970 2969 2969 2970 2969 2969 2969 2967 2967 2965 2965 2964 2963 2962 2964 2962 2962 2962 2962 2963 2963 2963 2965 2968 2967 2969 2972 2975 2977 2979 2981 2982
3000 2993 2987 2981 2977 2974 2972 2971 2971 2970 2970 2970 2970 2970 2970 2969 2969 2969 2969 2968 2967 2966 2965 2965 2964 2965 2966 2964 2964 2963 2963 2962 2963 2964 2964 2964 2965 2966 2968 2970 2973 2976 2977 2979 2981
2997 2991 2984 2980 2976 2974 2972 2972 2971 2971 2971 2971 2971 2970 2970 2970 2969 2969 2968 2967 2966 2965 2964 2964 2964 2965 2964 2964 2963 2963 2963 2963 2963 2963 2964 2964 2964 2965 2968 2970 2973 2975 2976 2978 2979
2995 2989 2983 2979 2975 2972 2972 2972 2972 2972 2973 2973 2973 2972 2971 2970 2970 2968 2967 2966 2966 2966 2964 2964 2964 2964 2964 2964 2964 2964 2964 2963 2963 2963 2963 2962 2963 2964 2966 2969 2972 2974 2975 2977 2978
2993 2986 2982 2980 2975 2973 2973 2974 2974 2974 2975 2974 2974 2974 2972 2971 2969 2968 2967 2967 2966 2966 2965 2965 2965 2965 2964 2964 2964 2965 2964 2965 2964 2963 2964 2964 2964 2964 2967 2969 2971 2973 2975 2976 2976
Wind_Speed
16 17 18 19 20 21 21 22 23 22 22 21 21 22 23 23 24 23 23 22 23 24 23 24 25 26 28 31 35 37 42 51 52 46 43 24 25 24 31 25 31 31 28 22 23
19 19 20 21 23 23 23 24 23 23 23 24 24 25 26 26 25 25 26 24 24 24 23 24 26 27 30 33 35 39 47 52 50 45 41 22 24 21 27 34 35 34 30 24 24
21 22 22 23 23 23 24 24 23 22 23 25 26 27 29 28 28 28 22 19 20 20 23 24 26 28 31 33 36 41 50 50 44 42 41 32 31 32 29 31 34 39 38 33 27
22 22 23 25 25 24 23 23 22 23 26 26 27 28 29 30 20 20 23 24 23 20 20 22 26 29 32 35 36 40 44 46 46 42 22 27 28 29 31 34 31 28 27 30 29
22 23 25 25 25 25 24 23 24 26 28 27 28 29 29 28 28 27 24 23 22 21 19 19 22 25 30 32 35 39 41 41 41 42 38 30 23 27 30 30 35 37 32 26 27
23 25 26 26 25 26 25 25 26 28 29 28 28 27 27 27 26 23 21 20 20 20 21 23 23 23 28 28 33 30 37 38 37 37 34 36 26 28 30 33 35 29 27 27 29
24 26 27 27 27 27 26 26 27 28 28 27 25 26 25 23 22 21 19 19 19 19 19 20 21 22 24 27 28 29 31 26 33 36 31 27 33 33 29 21 24 25 25 28 31
27 27 27 28 28 27 27 27 27 27 26 24 25 22 23 20 17 15 14 15 15 16 18 19 20 22 24 21 20 19 26 33 29 24 32 24 35 40 38 30 24 24 26 30 33
29 29 30 30 30 29 28 28 28 28 25 25 22 21 13 11 11 14 14 15 15 14 15 17 18 21 23 23 20 21 19 23 31 24 23 35 31 28 33 37 32 28 27 29 32
31 31 30 30 30 29 27 27 26 26 25 19 17 14 15 14 14 12 10 10 11 12 14 15 19 22 23 27 26 25 24 22 21 25 27 30 37 27 30 30 32 34 31 30 30
30 30 30 30 30 28 26 25 25 25 23 21 20 18 13 10 8 9 10 11 12 12 14 15 19 25 25 26 29 32 17 21 20 22 26 28 33 34 30 33 31 34 33 33 31
31 31 30 31 30 27 25 23 22 21 22 20 15 11 7 7 9 10 10 11 12 13 14 17 23 18 19 20 23 26 31 26 17 18 25 30 31 33 31 31 34 33 33 35 35
32 31 32 32 31 28 25 23 21 20 17 16 13 9 8 8 9 13 14 13 12 13 15 19 17 9 11 19 21 23 27 28 19 18 22 26 27 29 29 30 32 34 35 35 35
33 33 32 33 31 28 23 22 20 17 11 9 10 8 8 8 11 11 13 16 15 13 13 14 19 22 21 17 18 20 19 23 26 11 12 21 6 26 28 29 31 32 32 33 32
33 32 31 31 30 27 24 22 18 15 3 4 11 9 11 10 16 16 15 14 14 14 17 14 12 11 15 19 17 16 15 15 20 28 10 22 7 13 28 29 30 30 30 29 28
34 33 30 30 28 25 24 20 16 4 6 6 6 7 11 14 11 10 13 12 15 13 14 17 19 14 13 16 21 14 10 12 13 22 11 18 22 10 28 34 30 28 27 26 25
33 33 32 30 25 23 23 17 7 7 4 4 5 11 10 7 8 11 13 16 6 3 6 8 12 13 14 12 10 13 13 3 4 6 3 23 20 12 15 23 30 26 25 25 24
33 32 32 27 25 27 20 14 10 8 7 6 8 7 5 7 7 10 10 7 6 5 5 4 1 6 9 14 12 19 17 4 5 4 3 12 6 9 18 16 23 27 24 22 22
37 35 28 22 27 25 17 9 6 4 4 7 8 2 2 3 8 7 8 4 6 7 4 4 3 3 4 9 13 9 15 16 2 3 3 5 5 10 16 19 17 18 21 22 23
38 33 18 27 28 19 15 11 8 6 8 6 3 2 2 6 5 6 4 3 5 9 5 2 5 3 4 3 7 10 8 6 7 3 4 1 3 6 21 19 18 16 15 14 14
36 27 20 28 17 16 11 10 7 6 7 4 4 4 4 5 6 4 3 4 6 8 5 3 3 3 4 3 1 2 4 5 1 1 2 2 2 10 14 17 15 15 14 13 13
38 23 25 20 20 16 11 8 6 6 6 4 3 4 4 5 3 2 4 4 7 6 3 3 4 4 4 3 2 2 1 1 1 2 3 1 0 8 14 14 13 12 13 12 12
39 29 28 17 20 17 12 7 5 5 4 4 3 4 5 4 3 2 4 7 5 5 4 4 2 4 2 2 3 2 3 4 3 2 1 2 2 12 15 15 13 13 12 12 11
41 32 30 21 22 17 12 6 4 4 4 5 4 5 5 4 6 3 5 5 8 5 5 2 2 2 1 2 3 2 2 2 3 1 0 2 2 9 15 15 14 14 12 11 10
41 35 31 24 20 14 12 6 5 5 5 7 6 7 6 4 6 5 6 7 5 4 4 2 2 2 2 3 3 3 2 2 1 2 4 2 7 8 11 15 15 13 12 10 9
42 34 31 21 23 15 6 6 5 6 7 8 9 9 8 8 9 9 8 5 2 4 3 0 1 2 2 1 3 3 4 2 1 2 4 6 7 13 17 18 15 11 9 8 8
41 32 28 19 24 11 8 6 5 6 7 7 10 9 11 12 10 7 6 4 3 3 3 3 1 2 1 1 4 2 3 1 4 3 2 2 2 11 15 11 10 7 6 7 9
Wind_Direction
329 328 325 324 321 319 315 311 309 307 303 302 299 299 298 294 290 287 280 278 271 267 257 248 242 237 234 230 225 223 224 236 238 243 244 253 251 234 226 228 215 221 235 234 233
325 322 320 319 317 314 309 307 305 305 306 306 304 301 297 297 297 295 291 284 275 267 260 252 245 239 233 229 225 223 227 236 241 245 246 248 247 243 238 231 223 229 236 240 239
321 317 314 310 307 304 304 305 305 304 304 303 301 303 304 303 302 299 293 285 278 272 259 252 247 242 236 233 228 226 232 234 241 246 251 254 257 251 248 240 234 237 242 243 240
313 310 309 307 306 304 305 303 301 302 303 303 303 305 305 305 300 291 288 284 280 270 259 251 244 240 240 239 238 238 239 240 241 240 252 252 251 251 249 245 242 241 236 239 235
312 311 308 307 309 310 307 304 303 305 306 303 302 305 306 303 299 294 287 280 273 266 256 250 245 243 242 243 241 242 245 244 246 245 245 242 244 250 250 247 245 247 248 240 230
316 314 312 315 315 313 309 308 308 306 306 305 306 305 305 297 293 287 281 276 269 262 257 253 254 250 249 245 242 246 247 247 248 250 247 242 242 243 246 243 243 243 245 238 230
321 321 323 321 319 315 310 309 308 310 309 308 306 307 302 296 289 282 278 274 270 264 259 253 247 243 246 249 250 244 246 252 246 242 244 242 232 227 232 233 231 232 232 223 220
326 325 323 322 321 317 312 312 313 312 311 309 309 307 301 294 284 279 275 276 273 266 257 251 246 242 240 242 245 247 245 244 241 240 229 229 232 230 235 238 233 218 212 216 211
329 328 327 326 324 320 316 316 315 314 312 312 309 308 298 288 276 278 276 273 272 266 258 250 247 243 239 237 243 237 244 243 245 233 228 218 226 225 232 237 232 227 213 208 211
333 331 329 327 325 321 318 314 314 312 311 309 307 301 291 285 284 280 275 269 268 262 259 253 245 241 236 230 228 229 232 241 241 233 228 224 225 227 226 219 218 220 222 216 213
330 328 327 326 324 322 318 316 313 311 306 304 294 291 287 279 276 274 275 276 273 266 258 256 245 242 251 247 249 240 244 248 250 233 228 223 224 222 224 224 222 221 220 223 223
329 329 328 327 325 322 317 313 311 306 304 301 286 283 261 267 285 286 282 281 275 268 256 250 254 262 256 247 246 246 244 246 247 235 223 221 218 221 218 218 220 222 225 227 231
330 330 329 327 325 320 316 314 311 312 303 282 264 254 262 270 282 285 283 281 277 271 261 256 258 255 247 245 239 240 239 236 237 233 221 220 212 214 214 216 217 219 222 224 226
333 332 329 326 325 321 317 314 312 313 283 255 228 246 253 287 292 282 281 286 283 276 268 265 258 254 252 254 237 243 246 243 231 223 215 209 223 218 213 212 213 216 219 222 225
336 335 333 329 325 321 318 313 309 314 320 234 220 246 274 277 285 284 287 291 291 273 257 250 255 262 242 237 235 241 247 239 227 225 223 205 220 222 216 213 212 213 216 219 222
341 340 338 332 325 320 316 310 309 256 251 209 228 259 287 293 288 282 297 301 296 279 259 256 256 254 242 234 234 221 223 216 218 212 217 212 203 225 210 215 213 213 216 219 222
344 343 339 332 321 316 316 305 282 216 236 218 245 295 302 306 304 307 319 327 339 274 244 253 247 245 238 236 222 217 211 182 192 188 214 192 200 240 214 213 214 217 220 224 228
346 344 336 322 318 316 310 293 239 247 252 278 312 313 310 325 313 322 331 344 10 7 307 289 277 241 234 227 214 205 204 201 197 188 201 177 187 190 210 207 212 217 220 225 230
346 342 336 319 317 313 301 271 273 263 298 319 317 332 305 317 316 329 342 23 358 356 346 313 254 316 280 231 219 218 219 222 203 155 125 175 188 182 197 205 206 212 221 228 235
347 345 331 322 319 313 300 275 277 292 315 321 333 301 312 326 343 345 356 354 358 349 330 296 303 314 305 230 223 228 221 218 221 206 216 6 248 199 197 200 206 210 212 215 221
352 354 336 326 324 322 305 295 296 308 325 330 330 316 331 345 349 13 8 337 346 349 356 328 296 322 324 6 2 194 216 236 224 294 170 148 238 199 193 201 204 208 212 215 218
360 2 347 340 340 331 320 314 302 320 332 335 339 349 340 345 355 10 347 341 340 351 338 318 303 308 303 314 315 310 294 268 336 359 75 116 192 172 177 192 198 202 207 210 211
356 359 355 352 347 344 331 313 316 331 346 356 5 356 350 352 1 343 337 334 334 346 354 326 320 319 325 297 301 326 305 285 273 309 147 141 205 185 186 194 199 203 204 201 199
353 353 351 348 345 339 336 321 335 347 4 15 25 10 5 5 353 319 322 319 322 311 305 308 277 319 224 320 349 0 0 302 258 275 156 247 101 214 199 189 193 196 197 193 195
349 348 350 343 348 342 337 333 353 9 24 31 25 21 24 12 358 347 332 318 321 330 326 241 303 312 3 357 293 298 338 360 347 287 233 304 239 224 204 195 196 198 197 200 210
346 346 343 358 348 348 357 8 18 24 42 37 35 29 20 12 356 338 333 336 329 346 3 311 283 292 328 356 17 359 13 2 311 307 288 289 241 201 184 188 196 202 210 219 234
342 345 345 357 360 18 10 11 29 47 57 51 41 30 20 8 2 10 10 16 353 356 21 28 337 326 316 256 313 327 312 52 16 340 307 7 290 207 189 190 195 206 234 253 263